Location: Barcelona
(41.3830°N, 2.1830°E)
Time: 18:19:54
(UTC+01:00)

ISS - Pass Details

Date: 18 January 2020
Orbit: 415 x 422 km, 51.6° (Epoch: 23 January)

Event Time Altitude Azimuth Distance (km) Brightness Sun altitude
Rises 19:53:20 0° 210° (SSW) 2,355 0.6 -22.9°
Reaches altitude 10° 19:55:34 10° 199° (SSW) 1,494 -0.7 -23.3°
Enters shadow 19:56:27 16° 191° (S) 1,187 -1.3 -23.5°
